Location: Ladrillo (historical)
(32.8195°N, 117.2231°W)
Time: 19:06:56
(UTC+00:00)

NOAA 18 - Pass Details

Date: 27 April 2021
Orbit: 840 x 861 km, 99.0° (Epoch: 05 May)

Event Time Altitude Azimuth Distance (km) Brightness Sun altitude
Exits shadow 05:49:40 34° 292° (WNW) 1,361 6.6 -35.6°
Drops below altitude 10° 05:53:26 10° 329° (NNW) 2,460 8.4 -36.0°
Sets 05:55:57 0° 337° (NNW) 3,397 9.3 -36.3°
